Humidity-temperature Sensor

Selected Measurement Type: Air Temperature

 
Air Temperature [°C]     6 entries per hour
Showing data from 6/9/2017 (00:00:00 Z) to 6/8/2017 (00:01:00 Z)
Previous Next [ Day | 3-Days | 7-Days ]
First Last
Prev [ Day | 3-Days | 7-Days ] Next
First Last

Start Time:     :
End Time:     :     
Time (in GMT) :00 :50 :40 :30 :20 :10
Previous Next [ Day | 3-Days | 7-Days ]
First Last
Prev [ Day | 3-Days | 7-Days ] Next
First Last


123 => good data
MM => data is determined as missing
-- => data not received/configured
Back to Top Back to Top
6/9/2017 00:00 to 23:10 26.96 26.87 26.88 26.82 26.79 27.01
6/8/2017 23:00 to 22:10 26.82 26.95 26.95 26.94 26.90 26.93
6/8/2017 22:00 to 21:10 27.07 27.02 26.97 27.00 27.08 27.01
6/8/2017 21:00 to 20:10 27.14 27.08 27.14 27.09 27.08 27.07
6/8/2017 20:00 to 19:10 27.08 27.07 27.03 27.03 27.07 27.19
6/8/2017 19:00 to 18:10 27.01 27.12 27.21 27.14 27.09 27.06
6/8/2017 18:00 to 17:10 27.02 26.99 27.07 27.06 27.07 27.05
6/8/2017 17:00 to 16:10 26.98 27.07 27.04 27.02 26.96 27.14
6/8/2017 16:00 to 15:10 26.98 27.04 26.99 26.90 26.99 27.02
6/8/2017 15:00 to 14:10 27.01 27.01 26.98 26.92 26.98 26.87
6/8/2017 14:00 to 13:10 26.89 26.88 26.94 26.88 26.83 26.94
6/8/2017 13:00 to 12:10 26.81 26.91 26.85 26.91 26.79 26.82
6/8/2017 12:00 to 11:10 26.83 26.87 26.74 26.73 26.67 26.64
6/8/2017 11:00 to 10:10 26.72 26.76 26.81 26.67 26.47 26.49
6/8/2017 10:00 to 9:10 26.83 26.79 26.85 26.95 26.93 26.85
6/8/2017 09:00 to 8:10 26.83 26.83 26.90 26.88 26.84 26.83
6/8/2017 08:00 to 7:10 26.87 26.90 26.87 27.04 26.99 26.95
6/8/2017 07:00 to 6:10 26.99 27.05 27.01 27.03 27.05 27.05
6/8/2017 06:00 to 5:10 -- -- -- -- -- --
6/8/2017 05:00 to 4:10 27.18 27.09 27.12 27.12 27.16 27.19
6/8/2017 04:00 to 3:10 27.12 27.12 27.15 27.12 27.26 27.15
6/8/2017 03:00 to 2:10 27.10 27.14 27.21 27.12 27.08 27.16
6/8/2017 02:00 to 1:10 27.16 27.12 27.17 27.16 27.07 27.14
6/8/2017 01:00 to 0:10 27.16 27.06 27.16 27.11 27.05 27.11